CDG1186 ZGSZ-ZSJN

Flight info

Callsign CDG1186
Flight time N/A
Altitude 33100
Route IDUMA W22 SHL G471 PLT W19 RUNEK H46 P262 H2 HFE W127 ATVIM H104 TOS H40 P292
Aircraft B738/M-SDE2E3FGHIRWXY/LB1

Departure

Time 2026-05-08 00:36
Airport Shenzhen Bao'an International Airport (ZGSZ)

Arrival

Time N/A
Airport Jinan Yaoqiang International Airport (ZSJN)
Time Latitude Longitude Altitude Speed Heading
2026-05-07 23:48 22.63646 113.80445 18 ft 0 kts 243°
2026-05-08 00:25 22.63650 113.80452 18 ft 2 kts 243°
2026-05-08 00:25 22.63656 113.80466 18 ft 2 kts 243°
2026-05-08 00:25 22.63663 113.80480 18 ft 2 kts 243°
2026-05-08 00:26 22.63668 113.80490 18 ft 2 kts 243°
2026-05-08 00:26 22.63678 113.80501 18 ft 2 kts 201°
2026-05-08 00:26 22.63693 113.80503 18 ft 2 kts 165°
2026-05-08 00:26 22.63699 113.80501 18 ft 1 kts 148°
2026-05-08 00:27 22.63703 113.80498 18 ft 0 kts 153°
2026-05-08 00:28 22.63701 113.80499 18 ft 2 kts 156°
2026-05-08 00:29 22.63670 113.80514 18 ft 8 kts 155°
2026-05-08 00:29 22.63609 113.80547 18 ft 10 kts 153°
2026-05-08 00:29 22.63545 113.80581 18 ft 10 kts 153°
2026-05-08 00:29 22.63509 113.80633 18 ft 9 kts 80°
2026-05-08 00:30 22.63536 113.80695 18 ft 10 kts 63°
2026-05-08 00:30 22.63572 113.80772 18 ft 13 kts 63°
2026-05-08 00:30 22.63614 113.80861 18 ft 13 kts 66°
2026-05-08 00:30 22.63646 113.80946 18 ft 9 kts 67°
2026-05-08 00:31 22.63633 113.81006 18 ft 9 kts 145°
2026-05-08 00:31 22.63577 113.81038 18 ft 10 kts 152°
2026-05-08 00:32 22.63281 113.81197 18 ft 21 kts 154°
2026-05-08 00:32 22.63142 113.81275 18 ft 24 kts 152°
2026-05-08 00:32 22.62996 113.81358 18 ft 23 kts 153°
2026-05-08 00:32 22.62853 113.81434 18 ft 22 kts 153°
2026-05-08 00:33 22.62717 113.81509 18 ft 22 kts 152°
2026-05-08 00:33 22.62586 113.81581 18 ft 21 kts 153°
2026-05-08 00:33 22.62516 113.81620 18 ft 9 kts 145°
2026-05-08 00:33 22.62507 113.81679 18 ft 9 kts 65°
2026-05-08 00:34 22.62533 113.81735 18 ft 8 kts 63°
2026-05-08 00:34 22.62566 113.81794 18 ft 9 kts 35°
2026-05-08 00:34 22.62609 113.81787 18 ft 0 kts 332°
2026-05-08 00:35 22.62675 113.81750 19 ft 38 kts 333°
2026-05-08 00:35 22.63137 113.81497 19 ft 108 kts 333°
2026-05-08 00:35 22.63985 113.81032 19 ft 163 kts 333°
2026-05-08 00:35 22.65039 113.80447 512 ft 170 kts 332°
2026-05-08 00:36 22.66077 113.79864 1242 ft 168 kts 333°
2026-05-08 00:36 22.67094 113.79298 1901 ft 167 kts 334°
2026-05-08 00:36 22.68139 113.78728 2426 ft 171 kts 334°
2026-05-08 00:36 22.69195 113.78161 2983 ft 172 kts 334°
2026-05-08 00:37 22.70279 113.77573 3472 ft 179 kts 333°
2026-05-08 00:37 22.71422 113.76948 3869 ft 191 kts 332°
2026-05-08 00:37 22.72714 113.76393 4201 ft 211 kts 348°
2026-05-08 00:38 22.75580 113.77485 4968 ft 246 kts 46°
2026-05-08 00:38 22.76729 113.78905 5481 ft 258 kts 49°
2026-05-08 00:38 22.77898 113.80424 6130 ft 264 kts 49°
2026-05-08 00:38 22.79083 113.81930 6868 ft 266 kts 48°
2026-05-08 00:39 22.80298 113.83447 7572 ft 269 kts 48°
2026-05-08 00:39 22.81528 113.84977 8274 ft 274 kts 48°
2026-05-08 00:39 22.82797 113.86557 8873 ft 283 kts 48°
2026-05-08 00:39 22.84118 113.88207 9343 ft 298 kts 48°
2026-05-08 00:40 22.85494 113.89912 10006 ft 305 kts 46°
2026-05-08 00:40 22.87037 113.91495 10625 ft 313 kts 36°
2026-05-08 00:40 22.88992 113.92598 11079 ft 325 kts 16°
2026-05-08 00:40 22.91260 113.93012 11505 ft 339 kts
2026-05-08 00:41 22.93659 113.92805 11901 ft 354 kts 349°
2026-05-08 00:41 22.96076 113.92031 12321 ft 367 kts 338°
2026-05-08 00:41 22.98422 113.90895 12980 ft 373 kts 334°
2026-05-08 00:41 23.00744 113.89628 13723 ft 376 kts 333°
2026-05-08 00:42 23.03062 113.88330 14502 ft 378 kts 333°
2026-05-08 00:42 23.05465 113.87184 15249 ft 380 kts 342°
2026-05-08 00:42 23.08077 113.86762 15948 ft 384 kts
2026-05-08 00:42 23.10717 113.87268 16616 ft 389 kts 18°
2026-05-08 00:43 23.13204 113.88559 17261 ft 394 kts 32°
2026-05-08 00:43 23.15442 113.90309 17873 ft 399 kts 36°
2026-05-08 00:43 23.17647 113.92171 18448 ft 405 kts 37°
2026-05-08 00:43 23.19869 113.94085 19023 ft 410 kts 37°
2026-05-08 00:44 23.22107 113.96020 19601 ft 414 kts 37°
2026-05-08 00:44 23.24367 113.97971 20170 ft 418 kts 37°
2026-05-08 00:44 23.26646 113.99937 20736 ft 422 kts 37°
2026-05-08 00:44 23.28966 114.01937 21283 ft 426 kts 37°
2026-05-08 00:45 23.31299 114.03941 21785 ft 431 kts 36°
2026-05-08 00:45 23.33658 114.05958 22319 ft 434 kts 36°
2026-05-08 00:45 23.36036 114.07987 22819 ft 438 kts 36°
2026-05-08 00:45 23.38431 114.10028 23357 ft 441 kts 36°
2026-05-08 00:46 23.40854 114.12094 23856 ft 444 kts 36°
2026-05-08 00:46 23.43289 114.14171 24353 ft 448 kts 36°
2026-05-08 00:46 23.45776 114.16295 24802 ft 453 kts 35°
2026-05-08 00:46 23.48270 114.18424 25279 ft 456 kts 35°
2026-05-08 00:47 23.50775 114.20566 25709 ft 461 kts 35°
2026-05-08 00:47 23.53299 114.22725 26171 ft 464 kts 35°
2026-05-08 00:47 23.55841 114.24899 26593 ft 468 kts 35°
2026-05-08 00:47 23.58403 114.27094 27057 ft 471 kts 35°
2026-05-08 00:48 23.60982 114.29304 27447 ft 476 kts 35°
2026-05-08 00:48 23.63608 114.31556 27862 ft 479 kts 35°
2026-05-08 00:48 23.66230 114.33798 28281 ft 482 kts 35°
2026-05-08 00:48 23.68893 114.36025 28701 ft 485 kts 34°
2026-05-08 00:49 23.71567 114.38226 29375 ft 481 kts 33°
2026-05-08 00:49 23.74223 114.40397 30096 ft 477 kts 33°
2026-05-08 00:49 23.76858 114.42548 30749 ft 473 kts 32°
2026-05-08 00:49 23.79476 114.44682 31365 ft 470 kts 32°
2026-05-08 00:50 23.82104 114.46828 31881 ft 470 kts 32°
2026-05-08 00:50 23.84709 114.48957 32353 ft 470 kts 32°
2026-05-08 00:50 23.87324 114.51097 32813 ft 469 kts 32°
2026-05-08 00:50 23.89929 114.53233 33124 ft 472 kts 32°
2026-05-08 00:51 23.92553 114.55386 33125 ft 472 kts 32°
2026-05-08 00:51 23.97742 114.59661 33129 ft 466 kts 32°
2026-05-08 00:52 24.02951 114.63954 33128 ft 469 kts 32°
2026-05-08 00:52 24.08169 114.68257 33127 ft 470 kts 32°
2026-05-08 00:53 24.13390 114.72571 33127 ft 471 kts 32°
2026-05-08 00:53 24.18617 114.76897 33128 ft 470 kts 32°
2026-05-08 00:54 24.23835 114.81216 33131 ft 469 kts 32°
2026-05-08 00:54 24.29312 114.85000 33137 ft 460 kts 18°
2026-05-08 00:55 24.35325 114.87060 33148 ft 451 kts
2026-05-08 00:55 24.41467 114.88514 33154 ft 451 kts
2026-05-08 00:56 24.47615 114.89894 33161 ft 451 kts
2026-05-08 00:56 24.53742 114.91327 33163 ft 452 kts
2026-05-08 00:57 24.59901 114.92816 33159 ft 452 kts
2026-05-08 00:57 24.66034 114.94323 33158 ft 452 kts
2026-05-08 00:58 24.72165 114.95835 33155 ft 452 kts
2026-05-08 00:58 24.78307 114.97351 33154 ft 453 kts
2026-05-08 00:59 24.84459 114.98854 33156 ft 451 kts
2026-05-08 00:59 24.90596 115.00342 33160 ft 452 kts
2026-05-08 01:00 24.96737 115.01834 33159 ft 451 kts
2026-05-08 01:00 25.02892 115.03333 33161 ft 453 kts
2026-05-08 01:01 25.09038 115.04833 33163 ft 453 kts
2026-05-08 01:01 25.15205 115.06340 33164 ft 452 kts
2026-05-08 01:02 25.21337 115.07842 33178 ft 453 kts
2026-05-08 01:02 25.27510 115.09352 33170 ft 452 kts
2026-05-08 01:03 25.33657 115.10236 33174 ft 439 kts 351°
2026-05-08 01:03 25.36644 115.09804 33183 ft 430 kts 340°
2026-05-08 01:03 25.39468 115.08808 33182 ft 425 kts 333°
2026-05-08 01:04 25.44873 115.06209 33179 ft 421 kts 329°
2026-05-08 01:04 25.50154 115.03440 33177 ft 420 kts 329°
2026-05-08 01:05 25.55442 115.00662 33183 ft 421 kts 329°
2026-05-08 01:05 25.60763 114.97894 33190 ft 421 kts 329°
2026-05-08 01:06 25.66121 114.95124 33196 ft 422 kts 329°
2026-05-08 01:06 25.71425 114.92387 33200 ft 422 kts 329°
2026-05-08 01:07 25.76829 114.89844 33195 ft 426 kts 336°
2026-05-08 01:07 25.79755 114.89142 33201 ft 436 kts 347°
2026-05-08 01:07 25.82831 114.89102 33198 ft 444 kts 358°
2026-05-08 01:08 25.88974 114.90593 33199 ft 459 kts 10°
2026-05-08 01:08 25.95039 114.92868 33201 ft 461 kts 13°
2026-05-08 01:09 26.01071 114.95306 33199 ft 463 kts 13°
2026-05-08 01:09 26.07126 114.97761 33198 ft 460 kts 13°
2026-05-08 01:10 26.13129 115.00173 33195 ft 458 kts 13°
2026-05-08 01:10 26.19132 115.02563 33193 ft 459 kts 13°
2026-05-08 01:11 26.25166 115.04955 33186 ft 460 kts 13°
2026-05-08 01:11 26.31192 115.07342 33191 ft 461 kts 12°
2026-05-08 01:12 26.37222 115.09733 33194 ft 461 kts 12°
2026-05-08 01:12 26.43246 115.12125 33197 ft 459 kts 12°
2026-05-08 01:13 26.49268 115.14520 33203 ft 459 kts 12°
2026-05-08 01:13 26.55259 115.16904 33208 ft 458 kts 12°
2026-05-08 01:14 26.61266 115.19294 33209 ft 459 kts 12°
2026-05-08 01:14 26.67301 115.21700 33206 ft 460 kts 12°
2026-05-08 01:15 26.73303 115.24098 33207 ft 459 kts 12°
2026-05-08 01:15 26.79312 115.26500 33201 ft 459 kts 12°
2026-05-08 01:16 26.85314 115.28895 33203 ft 457 kts 12°
2026-05-08 01:16 26.91318 115.31285 33201 ft 457 kts 12°
2026-05-08 01:17 26.97304 115.33666 33204 ft 456 kts 12°
2026-05-08 01:17 27.03276 115.36047 33204 ft 457 kts 11°
2026-05-08 01:18 27.09280 115.38443 33199 ft 457 kts 11°
2026-05-08 01:18 27.15284 115.40842 33203 ft 459 kts 11°
2026-05-08 01:19 27.21271 115.43241 33202 ft 457 kts 11°
2026-05-08 01:19 27.27249 115.45636 33201 ft 457 kts 11°
2026-05-08 01:20 27.33239 115.48040 33199 ft 456 kts 11°
2026-05-08 01:20 27.39222 115.50440 33202 ft 459 kts 11°
2026-05-08 01:21 27.45213 115.52849 33201 ft 458 kts 11°
2026-05-08 01:21 27.51224 115.55270 33198 ft 457 kts 11°
2026-05-08 01:22 27.57196 115.57678 33202 ft 458 kts 11°
2026-05-08 01:22 27.63198 115.60094 33206 ft 459 kts 11°
2026-05-08 01:23 27.69186 115.62512 33210 ft 458 kts 11°
2026-05-08 01:23 27.75198 115.64943 33214 ft 459 kts 11°
2026-05-08 01:24 27.81208 115.67364 33213 ft 458 kts 11°
2026-05-08 01:24 27.87191 115.69763 33209 ft 456 kts 11°
2026-05-08 01:25 27.93206 115.72170 33209 ft 458 kts 11°
2026-05-08 01:25 27.99187 115.74568 33208 ft 458 kts 10°
2026-05-08 01:26 28.05185 115.76970 33207 ft 459 kts 11°
2026-05-08 01:26 28.11204 115.79383 33203 ft 459 kts 11°
2026-05-08 01:27 28.17225 115.81806 33211 ft 458 kts 11°
2026-05-08 01:27 28.23208 115.84214 33222 ft 458 kts 11°
2026-05-08 01:28 28.29211 115.86632 33216 ft 459 kts 11°
2026-05-08 01:28 28.35238 115.89069 33219 ft 459 kts 11°
2026-05-08 01:29 28.41271 115.91428 33226 ft 457 kts
2026-05-08 01:29 28.44330 115.92185 33223 ft 445 kts 358°
2026-05-08 01:29 28.47378 115.92466 33223 ft 437 kts 353°
2026-05-08 01:30 28.53393 115.92410 33235 ft 431 kts 348°
2026-05-08 01:30 28.59386 115.92139 33234 ft 431 kts 348°
2026-05-08 01:31 28.65372 115.91897 33231 ft 432 kts 349°
2026-05-08 01:31 28.71371 115.91714 33234 ft 433 kts 349°
2026-05-08 01:32 28.77407 115.91561 33247 ft 435 kts 349°
2026-05-08 01:32 28.83483 115.91897 33239 ft 448 kts
2026-05-08 01:32 28.86516 115.92909 33241 ft 463 kts 13°
2026-05-08 01:33 28.89411 115.94627 33249 ft 477 kts 24°
2026-05-08 01:33 28.94512 115.99640 33250 ft 493 kts 39°
2026-05-08 01:34 28.98972 116.05717 33247 ft 501 kts 45°
2026-05-08 01:34 29.03169 116.12031 33246 ft 501 kts 46°
2026-05-08 01:35 29.07359 116.18386 33245 ft 503 kts 46°
2026-05-08 01:35 29.11609 116.24758 33251 ft 503 kts 45°
2026-05-08 01:36 29.15873 116.31081 33244 ft 504 kts 45°
2026-05-08 01:36 29.20140 116.37377 33248 ft 503 kts 45°
2026-05-08 01:37 29.24418 116.43679 33249 ft 504 kts 45°
2026-05-08 01:37 29.28708 116.50010 33247 ft 504 kts 45°
2026-05-08 01:38 29.32988 116.56335 33243 ft 504 kts 45°